EW0482 Weather Reports


Display with metric or nautical units.
time (UTC)temp
F
wind
direction
speed
MPH
gust
MPH
rain 1hr
in
rain 24hr
in
rain mn
in
humidity
%
barometer
mb
20260504173016 65 235 3.0 8.0 0.00 0.00 0.00 65 1004.8
20260504171514 66 251 0.0 5.0 0.00 0.00 0.00 64 1004.7
20260504081524 58 244 0.0 3.0 0.00 0.00 0.00 70 1004.5
20260504050009 59 261 0.0 0.0 0.00 0.00 0.00 74 1004.1
20260504044509 59 261 0.0 1.0 0.00 0.00 0.00 74 1003.9
20260504043007 59 261 0.0 2.0 0.00 0.00 0.00 74 1003.9
20260504041506 59 265 0.0 1.0 0.00 0.00 0.00 74 1003.9
20260504040015 59 252 0.0 1.0 0.00 0.00 0.00 73 1003.6
20260504034505 60 251 0.0 2.0 0.00 0.00 0.00 73 1003.3
20260504033004 60 254 0.0 2.0 0.00 0.00 0.00 74 1003.3
20260504031504 60 256 0.0 5.0 0.00 0.00 0.00 74 1003.1
20260504030005 60 246 0.0 4.0 0.00 0.00 0.00 74 1003.0
20260504024503 60 252 0.0 6.0 0.00 0.00 0.00 74 1003.0
20260504023003 60 248 0.0 5.0 0.00 0.00 0.00 74 1002.9
20260504021501 60 234 0.0 5.0 0.00 0.00 0.00 74 1002.6
20260504020002 61 245 1.0 7.0 0.00 0.00 0.00 74 1002.4
20260504014501 61 225 0.0 3.0 0.00 0.00 0.00 74 1002.4
20260504013106 62 238 0.0 3.0 0.00 0.00 0.00 73 1002.1
20260504011600 62 244 0.0 3.0 0.00 0.00 0.00 72 1002.3
20260504010100 62 257 0.0 5.0 0.00 0.00 0.00 70 1002.1
20260504004609 63 242 1.0 7.0 0.00 0.00 0.00 69 1002.2
20260504003059 64 239 0.0 2.0 0.00 0.00 0.00 68 1002.1
20260504001602 63 249 0.0 4.0 0.00 0.00 0.00 71 1002.1
20260504000101 63 246 1.0 3.0 0.00 0.00 0.00 73 1001.9
20260503234556 63 164 1.0 8.0 0.00 0.00 0.00 73 1002.1
20260503233056 63 244 0.0 6.0 0.00 0.00 0.00 72 1001.9
20260503231559 64 214 0.0 5.0 0.00 0.00 0.00 71 1002.2
20260503230106 64 254 1.0 7.0 0.00 0.00 0.00 71 1002.2
20260503224559 64 242 0.0 9.0 0.00 0.00 0.00 71 1002.5
20260503223053 64 250 1.0 8.0 0.00 0.00 0.00 69 1002.5
20260503221553 65 246 0.0 8.0 0.00 0.00 0.00 68 1002.7
20260503220053 65 257 0.0 6.0 0.00 0.00 0.00 67 1002.8
20260503214551 65 264 0.0 6.0 0.00 0.00 0.00 67 1002.9
20260503213100 64 167 0.0 8.0 0.00 0.00 0.00 67 1002.9
20260503211610 64 246 3.0 10.0 0.00 0.00 0.00 66 1002.9
20260503210050 66 226 2.0 8.0 0.00 0.00 0.00 63 1002.9
20260503204549 66 229 1.0 8.0 0.00 0.00 0.00 65 1002.9
20260503203052 65 248 1.0 5.0 0.00 0.00 0.00 66 1002.9
20260503201549 65 244 0.0 1.0 0.00 0.00 0.00 66 1003.0
20260503200057 65 250 0.0 7.0 0.00 0.00 0.00 67 1003.2
20260503194551 65 257 0.0 6.0 0.00 0.00 0.00 67 1003.2
20260503193057 65 247 0.0 5.0 0.00 0.00 0.00 68 1003.3
20260503191549 66 248 0.0 7.0 0.00 0.00 0.00 68 1003.3
20260503190048 65 97 0.0 1.0 0.00 0.00 0.00 69 1003.3
20260503184554 65 94 0.0 4.0 0.00 0.00 0.00 70 1003.6
20260503183043 64 103 0.0 2.0 0.00 0.00 0.00 71 1003.6
20260503181552 63 248 0.0 1.0 0.00 0.00 0.00 72 1003.8
20260503180048 63 256 0.0 4.0 0.00 0.00 0.00 73 1003.8
20260503174544 62 251 0.0 3.0 0.00 0.00 0.00 73 1003.8